Time,TemperatureF,DewpointF,PressureIn,WindDirection,WindDirectionDegrees,WindSpeedMPH,WindSpeedGustMPH,Humidity,HourlyPrecipIn,Conditions,Clouds,dailyrainin,SolarRadiationWatts/m^2,SoftwareType,DateUTC
2013-09-28 00:00:00,73.0,61.0,-100.00,South,184,2.0,-999.0,67,0.00,,,0.00,0.000000,,2013-09-28 05:00:00,
2013-09-28 00:43:00,73.0,61.0,-100.00,South,184,2.0,-999.0,67,0.00,,,0.00,0.000000,,2013-09-28 05:43:00,
2013-09-28 00:53:00,73.0,61.0,-100.00,South,184,2.0,-999.0,67,0.00,,,0.00,0.000000,,2013-09-28 05:53:00,
2013-09-28 01:00:00,74.0,61.0,-100.00,South,182,1.0,-999.0,65,0.00,,,0.00,0.000000,,2013-09-28 06:00:00,
2013-09-28 01:42:00,74.0,61.0,-100.00,South,182,1.0,-999.0,65,0.00,,,0.00,0.000000,,2013-09-28 06:42:00,
2013-09-28 01:52:00,74.0,61.0,-100.00,South,182,1.0,-999.0,65,0.00,,,0.00,0.000000,,2013-09-28 06:52:00,
2013-09-28 02:00:00,74.0,61.0,-100.00,South,175,1.0,-999.0,64,0.00,,,0.00,1.000000,,2013-09-28 07:00:00,
2013-09-28 02:42:00,74.0,61.0,-100.00,South,175,1.0,-999.0,64,0.00,,,0.00,1.000000,,2013-09-28 07:42:00,
2013-09-28 02:52:00,74.0,61.0,-100.00,South,175,1.0,-999.0,64,0.00,,,0.00,1.000000,,2013-09-28 07:52:00,
2013-09-28 03:00:00,74.0,61.0,-100.00,SSW,196,2.0,-999.0,65,0.00,,,0.00,1.000000,,2013-09-28 08:00:00,
2013-09-28 03:43:00,74.0,61.0,-100.00,SSW,196,2.0,-999.0,65,0.00,,,0.00,1.000000,,2013-09-28 08:43:00,
2013-09-28 03:53:00,74.0,61.0,-100.00,SSW,196,2.0,-999.0,65,0.00,,,0.00,1.000000,,2013-09-28 08:53:00,
2013-09-28 04:00:00,73.0,61.0,-100.00,SSW,203,2.0,-999.0,66,0.00,,,0.00,1.000000,,2013-09-28 09:00:00,
2013-09-28 04:43:00,73.0,61.0,-100.00,SSW,203,2.0,-999.0,66,0.00,,,0.00,1.000000,,2013-09-28 09:43:00,
2013-09-28 04:54:00,73.0,61.0,-100.00,SSW,203,2.0,-999.0,66,0.00,,,0.00,1.000000,,2013-09-28 09:54:00,
2013-09-28 05:00:00,73.0,61.0,-100.00,SSW,199,2.0,-999.0,67,0.00,,,0.00,1.000000,,2013-09-28 10:00:00,
2013-09-28 05:43:00,73.0,61.0,-100.00,SSW,199,2.0,-999.0,67,0.00,,,0.00,1.000000,,2013-09-28 10:43:00,
2013-09-28 05:52:00,73.0,61.0,-100.00,SSW,199,2.0,-999.0,67,0.00,,,0.00,1.000000,,2013-09-28 10:52:00,
2013-09-28 06:00:00,73.0,62.0,-100.00,SSW,193,2.0,-999.0,69,0.00,,,0.00,1.000000,,2013-09-28 11:00:00,
2013-09-28 06:43:00,73.0,62.0,-100.00,SSW,193,2.0,-999.0,69,0.00,,,0.00,1.000000,,2013-09-28 11:43:00,
2013-09-28 06:52:00,73.0,62.0,-100.00,SSW,193,2.0,-999.0,69,0.00,,,0.00,1.000000,,2013-09-28 11:52:00,
2013-09-28 08:00:00,72.0,63.0,-100.00,South,184,2.0,-999.0,74,0.00,,,0.00,16.000000,,2013-09-28 13:00:00,
2013-09-28 08:42:00,72.0,63.0,-100.00,South,184,2.0,-999.0,74,0.00,,,0.00,16.000000,,2013-09-28 13:42:00,
2013-09-28 08:52:00,72.0,63.0,-100.00,South,184,2.0,-999.0,74,0.00,,,0.00,16.000000,,2013-09-28 13:52:00,
2013-09-28 10:00:00,73.0,65.0,-100.00,South,175,2.0,-999.0,74,0.00,,,0.00,99.000000,,2013-09-28 15:00:00,
2013-09-28 10:44:00,73.0,65.0,-100.00,South,175,2.0,-999.0,74,0.00,,,0.00,99.000000,,2013-09-28 15:44:00,
2013-09-28 10:54:00,73.0,65.0,-100.00,South,175,2.0,-999.0,74,0.00,,,0.00,99.000000,,2013-09-28 15:54:00,
2013-09-28 11:00:00,74.0,66.0,-100.00,South,180,2.0,-999.0,74,0.00,,,0.00,129.000000,,2013-09-28 16:00:00,
2013-09-28 11:43:00,74.0,66.0,-100.00,South,180,2.0,-999.0,74,0.00,,,0.00,129.000000,,2013-09-28 16:43:00,
2013-09-28 11:54:00,74.0,66.0,-100.00,South,180,2.0,-999.0,74,0.00,,,0.00,129.000000,,2013-09-28 16:54:00,
2013-09-28 12:00:00,76.0,66.0,-100.00,South,175,1.0,-999.0,71,0.00,,,0.00,262.000000,,2013-09-28 17:00:00,
2013-09-28 12:43:00,76.0,66.0,-100.00,South,175,1.0,-999.0,71,0.00,,,0.00,262.000000,,2013-09-28 17:43:00,
2013-09-28 12:52:00,76.0,66.0,-100.00,South,175,1.0,-999.0,71,0.00,,,0.00,262.000000,,2013-09-28 17:52:00,
2013-09-28 13:00:00,80.0,67.0,-100.00,South,180,2.0,-999.0,65,0.00,,,0.00,667.000000,,2013-09-28 18:00:00,
2013-09-28 13:42:00,80.0,67.0,-100.00,South,180,2.0,-999.0,65,0.00,,,0.00,667.000000,,2013-09-28 18:42:00,
2013-09-28 13:52:00,80.0,67.0,-100.00,South,180,2.0,-999.0,65,0.00,,,0.00,667.000000,,2013-09-28 18:52:00,
2013-09-28 14:00:00,80.0,68.0,-100.00,South,186,1.0,-999.0,66,0.00,,,0.00,270.000000,,2013-09-28 19:00:00,
2013-09-28 14:42:00,80.0,68.0,-100.00,South,186,1.0,-999.0,66,0.00,,,0.00,270.000000,,2013-09-28 19:42:00,
2013-09-28 14:52:00,80.0,68.0,-100.00,South,186,1.0,-999.0,66,0.00,,,0.00,270.000000,,2013-09-28 19:52:00,
2013-09-28 15:00:00,76.0,73.0,-100.00,SSW,202,1.0,-999.0,91,0.02,,,0.02,94.000000,,2013-09-28 20:00:00,
2013-09-28 15:43:00,76.0,73.0,-100.00,SSW,202,1.0,-999.0,91,0.02,,,0.02,94.000000,,2013-09-28 20:43:00,
2013-09-28 15:53:00,76.0,73.0,-100.00,SSW,202,1.0,-999.0,91,0.02,,,0.02,94.000000,,2013-09-28 20:53:00,
2013-09-28 16:00:00,76.0,74.0,-100.00,South,185,1.0,-999.0,91,0.04,,,0.06,217.000000,,2013-09-28 21:00:00,
2013-09-28 16:44:00,76.0,74.0,-100.00,South,185,1.0,-999.0,91,0.04,,,0.06,217.000000,,2013-09-28 21:44:00,
2013-09-28 16:55:00,76.0,74.0,-100.00,South,185,1.0,-999.0,91,0.04,,,0.06,217.000000,,2013-09-28 21:55:00,
2013-09-28 17:00:00,76.0,73.0,-100.00,South,188,0.0,-999.0,92,0.00,,,0.06,41.000000,,2013-09-28 22:00:00,
2013-09-28 17:43:00,76.0,73.0,-100.00,South,188,0.0,-999.0,92,0.00,,,0.06,41.000000,,2013-09-28 22:43:00,
2013-09-28 17:54:00,76.0,73.0,-100.00,South,188,0.0,-999.0,92,0.00,,,0.06,41.000000,,2013-09-28 22:54:00,
2013-09-28 18:00:00,71.0,69.0,-100.00,NW,316,2.0,-999.0,95,0.54,,,0.60,3.000000,,2013-09-28 23:00:00,
2013-09-28 18:43:00,71.0,69.0,-100.00,NW,316,2.0,-999.0,95,0.54,,,0.60,3.000000,,2013-09-28 23:43:00,
2013-09-28 18:53:00,71.0,69.0,-100.00,NW,316,2.0,-999.0,95,0.54,,,0.60,3.000000,,2013-09-28 23:53:00,
2013-09-28 19:00:00,69.0,69.0,-100.00,SSE,164,0.0,-999.0,98,0.21,,,0.81,1.000000,,2013-09-29 00:00:00,
2013-09-28 19:43:00,69.0,69.0,-100.00,SSE,164,0.0,-999.0,98,0.21,,,0.81,1.000000,,2013-09-29 00:43:00,
2013-09-28 19:52:00,69.0,69.0,-100.00,SSE,164,0.0,-999.0,98,0.21,,,0.81,1.000000,,2013-09-29 00:52:00,
2013-09-28 20:00:00,69.0,69.0,-100.00,South,170,1.0,-999.0,98,0.16,,,0.97,1.000000,,2013-09-29 01:00:00,
2013-09-28 20:43:00,69.0,69.0,-100.00,South,170,1.0,-999.0,98,0.16,,,0.97,1.000000,,2013-09-29 01:43:00,
2013-09-28 20:52:00,69.0,69.0,-100.00,South,170,1.0,-999.0,98,0.16,,,0.97,1.000000,,2013-09-29 01:52:00,
2013-09-28 21:00:00,69.0,69.0,-100.00,South,184,1.0,-999.0,99,0.02,,,0.99,1.000000,,2013-09-29 02:00:00,
2013-09-28 21:43:00,69.0,69.0,-100.00,South,184,1.0,-999.0,99,0.02,,,0.99,1.000000,,2013-09-29 02:43:00,
2013-09-28 21:53:00,69.0,69.0,-100.00,South,184,1.0,-999.0,99,0.02,,,0.99,1.000000,,2013-09-29 02:53:00,
2013-09-28 22:00:00,-999.0,-99.9,-100.00,SSW,209,1.0,-999.0,-999,-99.99,,,-99.99,0.000000,,2013-09-29 03:00:00,
2013-09-28 22:44:00,69.0,69.0,-100.00,SSW,209,1.0,-999.0,99,0.00,,,0.99,0.000000,,2013-09-29 03:44:00,
2013-09-28 22:55:00,69.0,69.0,-100.00,SSW,209,1.0,-999.0,99,0.00,,,0.99,0.000000,,2013-09-29 03:55:00,
2013-09-28 23:00:00,69.0,69.0,-100.00,West,270,0.0,-999.0,99,0.00,,,0.99,1.000000,,2013-09-29 04:00:00,
2013-09-28 23:44:00,69.0,69.0,-100.00,West,270,0.0,-999.0,99,0.00,,,0.99,1.000000,,2013-09-29 04:44:00,
2013-09-28 23:54:00,69.0,69.0,-100.00,West,270,0.0,-999.0,99,0.00,,,0.99,1.000000,,2013-09-29 04:54:00,